Showing default

LEMUR 2 KARENDARRELL, 64841

Orbit data source: Space-Track

LEMUR 2 KARENDARRELL, 64841 is an American payload satellite in SSO that was launched on Mon, 23 Jun 2025 UTC via an FALCON 9 launch vehicle from the Air Force Western Test Range (AFWTR). Payload-class satellites include a variety of spacecraft equipped with specific instruments for various scientific and technological missions. These include communications satellites like Starlink; space stations such as the ISS; scientific satellites like the Hubble; Earth observation satellites from companies like Planet Labs, Umbra, and HawkEye 360; GPS; miniature CubeSats for education and research; and military/defense satellites.

Loading next visibility...
Identifier
64841, 2025-135BU
Orbit
SSO
Country
Flag of USUS
Related business
Manufacturer
Spire/Glasgow
Mission
Operational Commercial Com/MetRO
Bus & Motor
CUBESAT 4U, Unknown motor
Mass
5 kg wet, 5 kg dry
Launch date (UTC)
2025-06-23 (10 months ago)
Launch vehicle
FALCON 9
Launch site
Air Force Western Test Range (AFWTR)
Object type
Payload
Rocket body
Debris
Shape & HBR
Box, 0.2 m
Radar Cross Section
0.045 m², Small (<0.1 m²)

Expand to show TLE details & history
Last TLE update: 8 hours ago

TLE from 8 hours ago
0 LEMUR 2 KARENDARRELL
1 64841U 25135BU  26120.28082816  .00008816  00000-0  72292-3 0  9993
2 64841  97.7690 236.5949 0009070  35.9201 324.2630 14.99452361 46832
Epoch: 2026-04-30T06:44Z
TLE epoch observation values (Epoch: 2026-04-30T06:44:23.553Z)
Latitude
Longitude
-82.73293°
Altitude
566.526 km
Speed
7.581 km/s
True Right ascension
15h 46m 22s
True Declination
0° 00' 00"
Sunlit
Object was in full shadow at epoch
Visualization orbit readout
Latitude
Unknown
Longitude
Unknown
Altitude
Unknown
Speed
Unknown
Apparent Right ascension
Unknown
Apparent Declination
Unknown
Sunlit
N/A
Visualization observer readout
Local Sidereal Time
22:23:11
Azimuth
Unknown
Elevation
Unknown
Doppler factor
Unknown
Orbital elements
Apogee altitude
571.894 km
Perigee altitude
559.298 km
Semi-major axis
6,943.733 km
Eccentricity
0.00091
Inclination
97.769°
RAAN
236.5949°
Arg. of periapsis
35.9201°
True anomaly
324.20224°
Mean anomaly
324.263°
Eccentric anomaly
324.23263°
Mean motion
3.75106 °/min
Orbital period
95.97 mins
BSTAR
0.00072292
Loading maneuver chart data...
Computing Atmospheric mass density...
Loading historical data...
Loading historical data...
Loading historical data...
Loading historical data...
Loading historical data...
Loading historical data...
Loading historical data...

Documentation

Showing up to 5 results
|